Weather History for Livingston, MT

Change the Weather History Date:

Saturday, March 16, 2013

  Actual Average Record
Temperature  
Mean Temperature 42 °F 36 °F  
Max Temperature 55 °F 48 °F 70 °F (2010)
Min Temperature 30 °F 24 °F -2 °F (1965)
Degree Days  
Heating Degree Days 23 29  
Month to date heating degree days 497  
Since 1 July heating degree days 5845  
Cooling Degree Days 0 0  
Month to date cooling degree days 0  
Year to date cooling degree days 0  
Moisture  
Dew Point 20 °F    
Average Humidity 43    
Maximum Humidity 72    
Minimum Humidity 21    
Precipitation  
Precipitation 0.00 in 0.02 in 0.29 in (2011)
Month to date precipitation 0.35  
Year to date precipitation 1.34  
Sea Level Pressure  
Sea Level Pressure 29.84 in    
Wind  
Wind Speed 10 mph (West)    
Max Wind Speed 22 mph    
Max Gust Speed 31 mph    
Visibility 10 miles    
Events      
T = Trace of Precipitation, MM = Missing Value Source: NWS Daily Summary

Daily Weather History Graph

Daily Weather History Graph

Search for Another Location

Airport:

Trip Planner

Search our weather history database for the weather conditions in past years. The results will help you decide how hot, cold, wet, or windy it might be!

Date:

Astronomy

Mar. 16, 2013 Rise Set
Actual Time 7:31 AM MDT 7:29 PM MDT
Civil Twilight 7:02 AM MDT 7:59 PM MDT
Nautical Twilight 6:27 AM MDT 8:33 PM MDT
Astronomical Twilight 5:52 AM MDT 9:09 PM MDT
Moon 9:48 AM MDT (3/16) 12:00 AM MDT (3/16)
Length of Visible Light 12h 56m
Length of Day
11h 57m
Waxing Crescent, 23% of the Moon is Illuminated
Mar 16
Waxing Crescent
Mar 19
First Quarter
Mar 27
Full
Apr 2
Last Quarter
Apr 10
New

Hourly Weather History & Observations

Time (MDT) Temp. Windchill Dew Point Humidity Pressure Visibility Wind Dir Wind Speed Gust Speed Precip Events Conditions
12:53 AM 39.0 °F 35.7 °F 25.0 °F 57% 30.00 in 10.0 mi WSW 4.6 mph - N/A   Overcast
1:53 AM 35.1 °F 31.0 °F 24.1 °F 64% 29.99 in 10.0 mi South 4.6 mph - N/A   Overcast
2:53 AM 35.1 °F 32.2 °F 24.1 °F 64% 29.98 in 10.0 mi NW 3.5 mph - N/A   Overcast
3:53 AM 30.9 °F 27.5 °F 23.0 °F 72% 29.97 in 10.0 mi WSW 3.5 mph - N/A   Overcast
4:53 AM 33.1 °F 26.9 °F 24.1 °F 70% 29.96 in 10.0 mi North 6.9 mph - N/A   Clear
5:53 AM 33.1 °F - 24.1 °F 70% 29.96 in 10.0 mi Calm Calm - N/A   Clear
6:53 AM 30.0 °F 25.2 °F 21.9 °F 72% 29.97 in 10.0 mi SSW 4.6 mph - N/A   Clear
7:53 AM 34.0 °F 28.8 °F 23.0 °F 64% 29.96 in 10.0 mi West 5.8 mph - N/A   Clear
8:53 AM 37.0 °F 31.6 °F 25.0 °F 62% 29.94 in 10.0 mi West 6.9 mph - N/A   Clear
9:53 AM 44.1 °F 36.5 °F 24.1 °F 45% 29.92 in 10.0 mi WSW 17.3 mph - N/A   Partly Cloudy
10:53 AM 48.9 °F - 21.9 °F 35% 29.90 in 10.0 mi West 19.6 mph - N/A   Mostly Cloudy
11:53 AM 48.9 °F - 19.9 °F 32% 29.90 in 10.0 mi WNW 20.7 mph 27.6 mph N/A   Mostly Cloudy
12:53 PM 54.0 °F - 17.1 °F 23% 29.84 in 10.0 mi West 21.9 mph 31.1 mph N/A   Clear
1:53 PM 54.0 °F - 18.0 °F 24% 29.84 in 10.0 mi WSW 21.9 mph 28.8 mph N/A   Clear
2:53 PM 52.0 °F - 19.0 °F 27% 29.81 in 10.0 mi WNW 20.7 mph 27.6 mph N/A   Clear
3:53 PM 54.0 °F - 17.1 °F 23% 29.78 in 10.0 mi West 18.4 mph 24.2 mph N/A   Clear
4:53 PM 54.0 °F - 15.1 °F 22% 29.75 in 10.0 mi West 17.3 mph 25.3 mph N/A   Clear
5:53 PM 53.1 °F - 14.0 °F 21% 29.73 in 10.0 mi West 18.4 mph 24.2 mph N/A   Clear
6:53 PM 50.0 °F - 12.0 °F 22% 29.73 in 10.0 mi West 11.5 mph - N/A   Clear
7:53 PM 48.9 °F - 14.0 °F 25% 29.70 in 10.0 mi West 8.1 mph 16.1 mph N/A   Overcast
8:53 PM 48.9 °F - 17.1 °F 28% 29.69 in 10.0 mi SW 18.4 mph 27.6 mph N/A   Overcast
9:53 PM 48.0 °F - 19.9 °F 33% 29.64 in 10.0 mi SW 19.6 mph 31.1 mph N/A   Overcast
10:53 PM 46.0 °F 39.0 °F 21.0 °F 37% 29.59 in 10.0 mi SW 17.3 mph 24.2 mph N/A   Overcast
11:53 PM 46.0 °F 40.2 °F 21.9 °F 39% 29.55 in 10.0 mi SW 12.7 mph - N/A   Overcast